Zurück zum Katalog

STARLINK-32930

AktivKommunikationVLEO
NORAD 63203·PAYLOAD·🇺🇸 United States

Gestartet Mar 13, 2025 von Cape Canaveral Space Force Station

Loading…

Nächste Überflüge (nächste 24 Stunden)

TLE

AktuellSource: CelesTrak SupGP

Epoche: Sep 14, 2026, 15:11 UTC

1 63203C 25048W   26257.63312500 -.00005535  00000+0 -20047-3 0  2577
2 63203  43.0026  98.5299 0001371 264.1359 162.8806 15.27579400    17

Verfolge STARLINK-32930 in Echtzeit mit AllMySat

Download on the App Store